Regional Weather Roundup
Issued by NWS

Home | Current Version | Previous Version | Text Only | Print | Product List | Glossary Off
Versions: 1 2 3 4 5 6 7 8 9 10 11 12 13 14 15 16 17 18 19 20 21 22 23 24 25 26 27 28 29 30 31 32 33 34 35 36 37 38 39 40 41 42 43 44 45 46 47 48 49 50

000
ASUS43 KLOT 291708
RWRIL

ILLINOIS REGIONAL WEATHER ROUNDUP
NATIONAL WEATHER SERVICE CHICAGO/ROMEOVILLE IL
1200 PM CDT WED MAR 29 2017

NOTE: "FAIR" INDICATES FEW OR NO CLOUDS BELOW 12,000 FEET WITH NO
SIGNIFICANT WEATHER AND/OR OBSTRUCTIONS TO VISIBILITY.

* THESE STATIONS ARE NOT UNDER NWS QUALITY CONTROL. THEY ALSO MAY NOT
  REPORT WEATHER SUCH AS PRECIPITATION OR FOG.

ILZ001-002-007-009-015-016-024-291800-
NORTHWEST ILLINOIS

CITY           SKY/WX    TMP DP  RH WIND       PRES   REMARKS
MOLINE         LGT RAIN  44  41  89 E20       30.14F FOG
STERLING*      LGT RAIN  45  40  82 E16       30.17F
SAVANNA*       CLOUDY    46  38  74 E13       30.18F
$$

ILZ003-004-008-010-011-017-018-291800-
NORTH CENTRAL ILLINOIS

CITY           SKY/WX    TMP DP  RH WIND       PRES   REMARKS
ROCKFORD       CLOUDY    48  33  56 E9        30.24F
FREEPORT*      CLOUDY    45  35  67 E14       30.22F
ROCHELLE*      CLOUDY    46  36  68 E12       30.23S
DE KALB*       CLOUDY    47  35  61 E13       30.23F
PERU*          CLOUDY    48  39  71 E10       30.20S
$$

ILZ005-006-012>014-019>023-291800-
NORTHEAST ILLINOIS

CITY           SKY/WX    TMP DP  RH WIND       PRES   REMARKS
CHICAGO-OHARE  CLOUDY    47  36  65 NE12      30.24S
CHICAGO-MIDWAY CLOUDY    47  37  68 NE14G21   30.24F
AURORA         CLOUDY    52  33  48 E13       30.23R
LANSING*       CLOUDY    49  41  71 NE9       30.23S
JOLIET*        CLOUDY    55  36  49 E9        30.22S
WAUKEGAN       CLOUDY    42  37  82 NE9       30.27R
DUPAGE AIRPORT MOSUNNY   50  37  61 NE12      30.23S
KANKAKEE*      CLOUDY    54  37  52 E14       30.21S
WHEELING       CLOUDY    43  37  79 NE9       30.26F
MORRIS*        CLOUDY    53  33  48 E16       30.20S
ROMEOVILLE*    CLOUDY    53  39  59 E12       30.22S
NORTHERLY ISL    N/A     41  37  86 NE14        N/A
$$

LMZ740>746-291800-
SOUTHERN LAKE MICHIGAN

STATION/POSITION SKY/WX   TEMP    WIND        PRES    VSBY  WAVE
                          AIR SEA DIR/SP/G                  HT/PER
                          (F)     (DEG/KT/KT) (MB)    (MI)  (FT/S)
HARRISON CRIB              39      40/ 14/ 16   N/A
BURNHAM HARBOR             41      20/  9/ 13   N/A
CALUMET HARBOR             40      20/ 13/ 16 1023.3F
BURNS HARBOR               40      30/ 10/ 15 1024.4R
MICHIGAN CITY              43      10/ 12/ 13   N/A
$$

ILZ025>027-034>036-040-047-049-050-058-095>099-291800-
WEST-CENTRAL ILLINOIS

CITY           SKY/WX    TMP DP  RH WIND       PRES   REMARKS
QUINCY         CLOUDY    48  46  93 E20G28    30.00F
GALESBURG*     RAIN      44  42  95 E18G28    30.06F
MACOMB*        RAIN      46  45  99 E23G31    30.08F
JACKSONVILLE*  LGT RAIN  49  47  94 NE14      30.10F
PITTSFIELD*    LGT RAIN  48  47  98 E16G23    30.05F
$$

ILZ028>032-037-038-041>044-048-051>054-059>061-291800-
CENTRAL ILLINOIS

CITY           SKY/WX    TMP DP  RH WIND       PRES   REMARKS
PONTIAC        CLOUDY    53  42  66 E21       30.19F
BLOOMINGTON    MOSUNNY   54  41  61 E23       30.16F
DECATUR        CLOUDY    52  44  74 E20       30.11F
PEORIA         CLOUDY    49  43  80 E12G22    30.19R
LACON*         CLOUDY    51  41  69 E13G20    30.18F
LINCOLN*       LGT RAIN  50  46  86 E10G18    30.14F
SPRINGFIELD    LGT RAIN  52  47  83 NE9       30.13R
TAYLORVILLE    LGT RAIN  52  48  87 E13       30.08F
$$

ILZ033-039-045-046-055>057-062-063-291800-
EAST-CENTRAL ILLINOIS

CITY           SKY/WX    TMP DP  RH WIND       PRES   REMARKS
CHAMPAIGN      PTSUNNY   57  40  52 E17       30.14R
RANTOUL*       CLOUDY    58  38  48 E16G25    30.16S
MATTOON        CLOUDY    56  48  74 E10       30.10F
PARIS*         CLOUDY    54  45  72 E14       30.15S
$$

ILZ079-100>102-291800-
SOUTHWEST ILLINOIS

CITY           SKY/WX    TMP DP  RH WIND       PRES   REMARKS
ALTON          CLOUDY    54  48  82 E14       30.07R
BELLEVILLE     CLOUDY    58  53  85 E12       30.01F
CAHOKIA*       CLOUDY    57  50  77 E7        30.03R
SPARTA*        CLOUDY    59  53  79 E14       30.02F
$$

ILZ064>066-069>071-074>076-080>082-084>086-088>090-092>094-291800-
SOUTH-CENTRAL ILLINOIS

CITY           SKY/WX    TMP DP  RH WIND       PRES   REMARKS
CARBONDALE     CLOUDY    63  55  75 E12       30.02F
CAIRO*         MOSUNNY   66  57  71 E12       30.01S
EFFINGHAM*     CLOUDY    58  51  76 E10G21    30.09F
MARION         PTSUNNY   68  55  64 E12       30.03F
MT. VERNON     CLOUDY    62  52  69 E13       30.06R
CENTRALIA*     CLOUDY    63  54  72 E13G18    30.04S
SALEM*         CLOUDY    62  51  67 E9G17     30.05F
METROPOLIS*    CLOUDY    65  55  68 E9G16     30.03F
$$

ILZ067-068-072-073-078-083-087-091-291800-
SOUTHEAST ILLINOIS

CITY           SKY/WX    TMP DP  RH WIND       PRES   REMARKS
LAWRENCEVILLE  CLOUDY    59  50  72 E17       30.11F
FLORA*         CLOUDY    63  52  67 E17G24    30.06F
FAIRFIELD*     PTSUNNY   61  52  73 E12       30.04F
HARRISBURG*    PTSUNNY   64  57  77 E13G20    30.05S
ROBINSON*      CLOUDY    57  49  75 E16       30.12F
CARMI*         CLOUDY    64  55  72 E16G24    30.04F
$$

ABBREVIATIONS USED IN REMARKS
   TC - TEMPERATURE IN CELSIUS
  WCI - WIND CHILL INDEX
   HX - HEAT INDEX
  VSB - VISIBILITY
$$





USA.gov is the U.S. government's official web portal to all federal, state and local government web resources and services.